STARLINK-37121, 68383

Orbit data source: Space-Track

STARLINK-37121, 68383 is a payload satellite owned by SpaceX/Seattle (US) in SSO that was launched on Thu, 26 Mar 2026 UTC via an FALCON 9 launch vehicle from the Air Force Western Test Range (AFWTR). Payload-class satellites include a variety of spacecraft equipped with specific instruments for various scientific and technological missions. These include communications satellites like Starlink; space stations such as the ISS; scientific satellites like the Hubble; Earth observation satellites from companies like Planet Labs, Umbra, and HawkEye 360; GPS; miniature CubeSats for education and research; and military/defense satellites.

Not visible in the next 10 days
Identifier
68383, 2026-063D
Orbit
SSO
Country
Flag of USUS
Related business
Manufacturer
SpaceX/Seattle
Mission
Operational spacecraft
Bus & Motor
STARLINK V2MO, Unknown motor
Mass
575 kg wet, ~530 kg dry
Launch date (UTC)
2026-03-26 (1 week ago)
Launch vehicle
FALCON 9
Launch site
Air Force Western Test Range (AFWTR)
Object type
Payload
Rocket body
Debris
Shape & HBR
Unknown shape, 17.7 m
Radar Cross Section
RCS unknown

Expand to show TLE details & history
Last TLE update: 5 hours ago

TLE from 5 hours ago
0 STARLINK-37121
1 68383U 26063D   26095.50003471 -.01896699  00000-0 -81821-2 0  9999
2 68383  97.2828 236.5063 0001572  55.6232  20.1755 15.88118893  2766
Epoch: 2026-04-05T12:00Z
TLE epoch observation values (Epoch: 2026-04-05T12:00:02.998Z)
Latitude
74.14927°
Longitude
-163.89848°
Altitude
319.299 km
Speed
7.724 km/s
True Right ascension
13h 59m 40s
True Declination
74° 03' 10"
Sunlit
Object was in daylight at epoch
Visualization orbit readout
Latitude
Unknown
Longitude
Unknown
Altitude
Unknown
Speed
Unknown
Apparent Right ascension
Unknown
Apparent Declination
Unknown
Sunlit
N/A
Visualization observer readout
Local Sidereal Time
23:11:03
Azimuth
Unknown
Elevation
Unknown
Doppler factor
Unknown
Orbital elements
Apogee altitude
305.478 km
Perigee altitude
303.377 km
Semi-major axis
6,682.564 km
Eccentricity
0.00016
Inclination
97.2828°
RAAN
236.5063°
Arg. of periapsis
55.6232°
True anomaly
20.18171°
Mean anomaly
20.1755°
Eccentric anomaly
20.17861°
Mean motion
3.97309 °/min
Orbital period
90.61 mins
BSTAR
-0.0081821
Loading maneuver chart data...
Computing Atmospheric mass density...
Loading historical data...
Loading historical data...
Loading historical data...
Loading historical data...
Loading historical data...
Loading historical data...
Loading historical data...

Documentation

Showing up to 5 results
|